{"data":{"norad_id":66770,"intl_designator":"2025-276DJ","name":"LILIUM-3","alt_names":[],"object_type":"PAYLOAD","status":"ACTIVE","operator":null,"country":"ROC","launch_date":"2025-11-28","launch_site_code":"AFWTR","launch_vehicle":null,"mission":null,"orbit_class":"UNKNOWN","rcs_meters":null,"size_class":null,"mass_kg":null,"dimensions":null,"purposes":[],"wikipedia_slug":null,"has_3d_model":false,"image_url":null,"decayed_at":null,"tle_current":{"epoch":"2026-09-19T12:18:31.176576Z","epoch_age_seconds":202842,"freshness":"STALE","line1":"1 66770U 25276DJ  26262.51286084  .00001486  00000+0  72376-4 0  9997","line2":"2 66770  97.4164 334.6942 0000520 334.9498  25.1712 15.19892742 44753","mean_motion":15.19892742,"eccentricity":5.2e-5,"inclination_deg":97.4164,"raan_deg":334.6942,"arg_perigee_deg":334.9498,"mean_anomaly_deg":25.1712,"bstar":7.2376e-5,"rev_number":4475,"period_min":94.743527632426,"perigee_km":505.80649194775,"apogee_km":506.52245930121,"semimajor_km":6884.3014756245,"source":"CELESTRAK","updated_at":"2026-09-21T09:00:16.185963Z"}}}